Regional Weather Roundup
Issued by NWS

Home | Current Version | Previous Version | Text Only | Print | Product List | Glossary On
Versions: 1 2 3 4 5 6 7 8 9 10 11 12 13 14 15 16 17 18 19 20 21 22 23 24 25 26 27 28 29 30 31 32 33 34 35 36 37 38 39 40 41 42 43 44 45 46 47 48 49 50
221
ASUS44 KLIX 211210
RWRLA
LOUISIANA WEATHER ROUNDUP
NATIONAL WEATHER SERVICE NEW ORLEANS LA
600 AM CST SUN DEC 21 2014

NOTE: "FAIR" INDICATES FEW OR NO CLOUDS BELOW 12,000 FEET WITH NO
      SIGNIFICANT WEATHER AND/OR OBSTRUCTIONS TO VISIBILITY.
      SKY/WX - SKY CONDITION AND SIGNIFICANT WEATHER.
      TMP - AIR TEMPERATURE.    DP   - DEWPOINT TEMPERATURE.
      RH  - RELATIVE HUMIDITY.  PRES - PRESSURE.
      HX  - HEAT INDEX.         WCI  - WIND CHILL INDEX.

*  THESE STATIONS ARE NOT NWS OR FAA STATIONS AND ARE NOT UNDER
   NWS QUALITY CONTROL.

LAZ040-048-061>063-065-066-069-211300-
SOUTHEAST LOUISIANA

CITY           SKY/WX    TMP DP  RH WIND       PRES   REMARKS
N.O. AUDUBON     N/A     53  50  89 MISG        N/A
6HR MIN TEMP:  52; 6HR MAX TEMP:  53;

N.O. INTL ARPT CLOUDY    52  47  83 E8        30.10S
6HR MIN TEMP:  52; 6HR MAX TEMP:  53;

N.O. LAKEFRONT CLOUDY    53  47  79 E12       30.11S
6HR MIN TEMP:  53; 6HR MAX TEMP:  55;

N.O. DOWNTOWN* CLOUDY    52  45  76 NE5       30.10F
6HR MIN TEMP:  52; 6HR MAX TEMP:  54;

SLIDELL        CLOUDY    50  46  86 N3        30.10F
6HR MIN TEMP:  50; 6HR MAX TEMP:  52;

BATON ROUGE    CLOUDY    48  44  86 N3        30.12S
6HR MIN TEMP:  43; 6HR MAX TEMP:  48;

BOOTHVILLE     CLOUDY    55  53  93 NE7       30.09S
6HR MIN TEMP:  54; 6HR MAX TEMP:  55;

BELLE CHASSE   CLOUDY    52  48  86 NE5       30.10F
6HR MIN TEMP:  52; 6HR MAX TEMP:  53;

BOGALUSA*        N/A     46  43  89 N3        30.13S
6HR MIN TEMP:  46; 6HR MAX TEMP:  52;

GALLIANO*      CLOUDY    55  51  89 MISG      30.10R
6HR MIN TEMP:  54; 6HR MAX TEMP:  55;

NEW ROADS*     CLOUDY    45  44  96 N3        30.13R
6HR MIN TEMP:  41; 6HR MAX TEMP:  45;

GONZALES*      CLOUDY    48  48 100 CALM      30.11S
6HR MIN TEMP:  47; 6HR MAX TEMP:  50;

HAMMOND*       NOT AVBL
HOUMA*         CLOUDY    52  48  87 N9        30.09F FOG
PORT FOURCHON* CLOUDY    55  52  88 NE9       30.12S

$$

LAZ041-044-053-054-211300-
SOUTHWEST LOUISIANA

CITY           SKY/WX    TMP DP  RH WIND       PRES   REMARKS
LAKE CHARLES   CLOUDY    44  42  93 NE5       30.11S
6HR MIN TEMP:  40; 6HR MAX TEMP:  46;

LAFAYETTE      CLOUDY    48  46  93 NE3       30.12S FOG
6HR MIN TEMP:  42; 6HR MAX TEMP:  48;

PATTERSON      CLOUDY    50  46  87 NE5       30.11S
6HR MIN TEMP:  50; 6HR MAX TEMP:  52;

SALT POINT       N/A     53  48  83 CALM      30.09S
6HR MIN TEMP:  53; 6HR MAX TEMP:  54;

NEW IBERIA     CLOUDY    47  45  93 N3        30.12S FOG
6HR MIN TEMP:  47; 6HR MAX TEMP:  49;

CHENAULT AIRPK CLOUDY    43  43 100 CALM      30.12

$$

LAZ027-028-211300-
CENTRAL LOUISIANA

CITY           SKY/WX    TMP DP  RH WIND       PRES   REMARKS
FORT POLK      CLEAR     40  39  97 NE5       30.11S
6HR MIN TEMP:  40; 6HR MAX TEMP:  42;

ALEXANDRIA INT CLEAR     36  36 100 CALM      30.12S FOG
6HR MIN TEMP:  35; 6HR MAX TEMP:  41;

ALEXANDRIA     CLEAR     34  33  96 CALM      30.13S
6HR MIN TEMP:  33; 6HR MAX TEMP:  39;


$$

LAZ001-002-211300-
NORTHWEST LOUISIANA

CITY           SKY/WX    TMP DP  RH WIND       PRES   REMARKS
SHREVEPORT     MOCLDY    35  34  96 CALM      30.15S FOG
6HR MIN TEMP:  34; 6HR MAX TEMP:  40;

BARKSDALE AFB  NOT AVBL
DTN SHREVEPORT CLOUDY    35  34  96 CALM      30.16F
6HR MIN TEMP:  33; 6HR MAX TEMP:  36;


$$

LAZ014-016-211300-
NORTHEAST LOUISIANA

CITY           SKY/WX    TMP DP  RH WIND       PRES   REMARKS
MONROE         CLEAR     35  34  96 NE3       30.17S
6HR MIN TEMP:  35; 6HR MAX TEMP:  41;

TALLULAH       CLEAR     33  32  96 CALM      30.17R FOG
6HR MIN TEMP:  33; 6HR MAX TEMP:  41;


$$




USA.gov is the U.S. government's official web portal to all federal, state and local government web resources and services.